This demonstration page uses our WeatherBlox Daily Observations layout. Learn more.

36.17497, -115.13722

Hourly Observations for June 23, 2018

Temp ( °F °C ) Dew Point ( °F °C ) Humidity (%) Winds ( mph kmh ) Pressure ( in mb ) Visibility ( mi km ) Precip ( " mm )
12:53 am 00:53 Clear 87 30.6 24 -4.4 10 10 Calm 29.62 1003 10 16.09344 0 0
1:53 am 01:53 Clear 84 28.9 23 -5 10 10 NW 6 9 29.62 1003 10 16.09344 0 0
2:53 am 02:53 Clear 87 30.6 18 -7.8 8 8 Calm 29.62 1003 10 16.09344 0 0
3:53 am 03:53 Clear 83 28.3 23 -5 11 11 WNW 3 6 29.62 1003 10 16.09344 0 0
4:53 am 04:53 Clear 79 26.1 25 -3.9 14 14 NNW 5 7 29.65 1004 10 16.09344 0 0
5:53 am 05:53 Sunny 79 26.1 26 -3.3 14 14 Calm 29.65 1004 10 16.09344 0 0
6:53 am 06:53 Sunny 84 28.9 16 -8.9 8 8 NNW 7 11 29.68 1005 10 16.09344 0 0
7:53 am 07:53 Sunny 90 32.2 13 -10.6 6 6 NNE 6 9 29.68 1005 10 16.09344 0 0
8:53 am 08:53 Sunny 92 33.3 15 -9.4 6 6 ENE 5 7 29.68 1005 10 16.09344 0 0
9:53 am 09:53 Sunny 95 35 15 -9.4 5 5 undefined N/A 29.68 1005 10 16.09344 0 0
10:53 am 10:53 Sunny 98 36.7 11 -11.7 4 4 E 7 11 29.68 1005 10 16.09344 0 0
11:53 am 11:53 Sunny 102 38.9 11 -11.7 3 3 SSE 7 11 29.65 1004 10 16.09344 0 0
12:53 pm 12:53 Sunny 105 40.6 14 -10 4 4 ESE 7 11 29.65 1004 10 16.09344 0 0
1:53 pm 13:53 Sunny 108 42.2 7 -13.9 2 2 SSW 15 24 29.62 1003 10 16.09344 0 0
2:53 pm 14:53 Sunny 109 42.8 6 -14.4 2 2 SW 14 22 29.59 1002 10 16.09344 0 0
3:00 pm 15:00 Sunny 108 42.2 7 -13.9 2 2 W 8 13 29.41 996 10 16.09344 0 0
3:53 pm 15:53 Sunny 109 42.8 9 -12.8 3 3 WSW 14 22 29.59 1002 10 16.09344 0 0
4:53 pm 16:53 Sunny 109 42.8 6 -14.4 2 2 SW 21 33 29.56 1001 10 16.09344 0 0
5:53 pm 17:53 Sunny 107 41.7 5 -15 2 2 SW 21 33 29.56 1001 10 16.09344 0 0
6:53 pm 18:53 Sunny 106 41.1 8 -13.3 3 3 WSW 13 20 29.56 1001 10 16.09344 0 0
7:53 pm 19:53 Sunny 103 39.4 9 -12.8 3 3 SW 10 17 29.56 1001 10 16.09344 0 0
8:53 pm 20:53 Clear 99 37.2 11 -11.7 4 4 SSW 12 19 29.59 1002 10 16.09344 0 0
9:53 pm 21:53 Clear 97 36.1 14 -10 5 5 S 13 20 29.59 1002 10 16.09344 0 0
10:53 pm 22:53 Clear 95 35 35 1.7 12 12 SW 17 28 29.59 1002 10 16.09344 0 0
11:53 pm 23:53 Clear 93 33.9 37 2.8 14 14 NNE 3 6 29.62 1003 10 16.09344 0 0

Powered by AerisWeather